IW3HBX-13 Weather Reports


Display with metric or nautical units.
time (UTC)temp
F
wind
direction
speed
MPH
gust
MPH
rain 1hr
in
rain 24hr
in
rain mn
in
humidity
%
barometer
mb
20260904223725 75 312 0.0 0.0 0.00 0.00 0.00 86 1017.5
20260904223123 75 312 0.0 0.0 0.00 0.00 0.00 85 1017.5
20260904222526 75 312 0.0 0.0 0.00 0.00 0.00 85 1017.4
20260904221925 75 312 0.0 0.0 0.00 0.00 0.00 85 1017.5
20260904221323 75 312 0.0 0.0 0.00 0.00 0.00 83 1017.4
20260904220125 75 312 0.0 0.0 0.00 0.00 0.00 83 1017.5
20260904215522 75 312 0.0 0.0 0.00 0.00 0.00 82 1017.6
20260904214924 75 312 0.0 0.0 0.00 0.00 0.00 83 1017.6
20260904214326 76 312 0.0 0.0 0.00 0.00 0.00 82 1017.6
20260904213722 76 312 0.0 0.0 0.00 0.00 0.00 81 1017.7
20260904213123 76 312 0.0 0.0 0.00 0.00 0.00 81 1017.7
20260904212522 77 312 0.0 0.0 0.00 0.00 0.00 80 1017.7
20260904211322 77 312 0.0 0.0 0.00 0.00 0.00 78 1017.6
20260904210125 77 312 0.0 0.0 0.00 0.00 0.00 78 1017.8
20260904205522 77 312 0.0 1.0 0.00 0.00 0.00 77 1017.8
20260904204923 77 312 0.0 0.0 0.00 0.00 0.00 77 1017.8
20260904204326 77 312 0.0 0.0 0.00 0.00 0.00 78 1017.9
20260904203724 78 302 1.0 2.0 0.00 0.00 0.00 76 1017.9
20260904203123 77 302 0.0 1.0 0.00 0.00 0.00 78 1017.8
20260904202526 78 301 0.0 0.0 0.00 0.00 0.00 78 1017.9
20260904201922 78 304 0.0 0.0 0.00 0.00 0.00 78 1017.9
20260904201407 78 304 0.0 0.0 0.00 0.00 0.00 80 1017.8
20260904201327 78 304 0.0 0.0 0.00 0.00 0.00 80 1017.8
20260904200126 77 304 0.0 1.0 0.00 0.00 0.00 80 1017.9
20260904195523 78 304 0.0 0.0 0.00 0.00 0.00 80 1018.0
20260904194924 78 304 1.0 1.0 0.00 0.00 0.00 80 1017.8
20260904194325 78 311 3.0 3.0 0.00 0.00 0.00 80 1017.8
20260904193725 79 112 2.0 2.0 0.00 0.00 0.00 77 1017.8
20260904193124 79 113 0.0 0.0 0.00 0.00 0.00 75 1017.8
20260904192524 79 113 0.0 0.0 0.00 0.00 0.00 77 1017.7
20260904191922 79 113 0.0 0.0 0.00 0.00 0.00 77 1017.7
20260904191321 79 113 0.0 0.0 0.00 0.00 0.00 77 1017.7
20260904190122 79 113 0.0 0.0 0.00 0.00 0.00 76 1017.7
20260904185107 80 113 0.0 0.0 0.00 0.00 0.00 75 1017.6
20260904184303 80 113 0.0 0.0 0.00 0.00 0.00 75 1017.6
20260904183245 80 113 1.0 2.0 0.00 0.00 0.00 75 1017.5
20260904182646 80 113 2.0 3.0 0.00 0.00 0.00 73 1017.4
20260904181310 81 111 1.0 2.0 0.00 0.00 0.00 72 1017.3
20260904174809 82 103 1.0 3.0 0.00 0.00 0.00 66 1017.1
20260904174208 82 110 2.0 3.0 0.00 0.00 0.00 65 1017.1
20260904173609 83 117 1.0 2.0 0.00 0.00 0.00 63 1017.1
20260904173007 83 92 1.0 4.0 0.00 0.00 0.00 60 1017.2
20260904171807 84 75 1.0 3.0 0.00 0.00 0.00 57 1017.1
20260904171210 84 92 2.0 2.0 0.00 0.00 0.00 54 1017.2
20260904170607 85 94 3.0 4.0 0.00 0.00 0.00 52 1017.2
20260904164807 86 99 3.0 4.0 0.00 0.00 0.00 49 1017.4
20260904164207 86 79 2.0 3.0 0.00 0.00 0.00 52 1017.4
20260904163009 86 124 3.0 5.0 0.00 0.00 0.00 51 1017.4
20260904161208 86 82 2.0 3.0 0.00 0.00 0.00 54 1017.4
20260904160607 86 91 2.0 3.0 0.00 0.00 0.00 56 1017.4
20260904154807 86 43 2.0 3.0 0.00 0.00 0.00 56 1017.6
20260904154207 87 81 3.0 4.0 0.00 0.00 0.00 54 1017.6
20260904153610 86 86 3.0 5.0 0.00 0.00 0.00 54 1017.7
20260904153010 87 101 3.0 4.0 0.00 0.00 0.00 54 1017.7
20260904151807 87 104 3.0 5.0 0.00 0.00 0.00 57 1017.6
20260904151207 88 107 3.0 5.0 0.00 0.00 0.00 54 1017.7
20260904150608 87 69 3.0 4.0 0.00 0.00 0.00 54 1017.8
20260904144807 87 87 3.0 5.0 0.00 0.00 0.00 54 1017.8
20260904144210 87 69 3.0 5.0 0.00 0.00 0.00 53 1017.8
20260904143607 87 85 3.0 4.0 0.00 0.00 0.00 54 1017.9
20260904143007 87 97 4.0 5.0 0.00 0.00 0.00 56 1018.0
20260904141808 87 119 3.0 6.0 0.00 0.00 0.00 57 1018.0
20260904141207 88 123 4.0 8.0 0.00 0.00 0.00 57 1018.1
20260904140609 87 80 4.0 5.0 0.00 0.00 0.00 59 1018.3
20260904134807 88 96 3.0 4.0 0.00 0.00 0.00 54 1018.4
20260904134207 89 127 3.0 5.0 0.00 0.00 0.00 53 1018.4
20260904133608 89 133 2.0 4.0 0.00 0.00 0.00 53 1018.4
20260904133008 89 185 2.0 5.0 0.00 0.00 0.00 51 1018.4
20260904131810 90 28 1.0 2.0 0.00 0.00 0.00 48 1018.5
20260904131207 90 125 1.0 3.0 0.00 0.00 0.00 49 1018.7
20260904130607 90 143 3.0 5.0 0.00 0.00 0.00 48 1018.6
20260904124809 88 324 2.0 4.0 0.00 0.00 0.00 48 1018.8
20260904124207 88 269 2.0 3.0 0.00 0.00 0.00 46 1018.8
20260904123607 90 204 1.0 3.0 0.00 0.00 0.00 45 1019.0
20260904123010 90 156 2.0 4.0 0.00 0.00 0.00 45 1018.9
20260904121807 88 20 3.0 5.0 0.00 0.00 0.00 49 1018.9
20260904121209 89 115 2.0 3.0 0.00 0.00 0.00 46 1019.1
20260904120610 89 124 2.0 4.0 0.00 0.00 0.00 46 1019.1
20260904114807 89 139 2.0 5.0 0.00 0.00 0.00 46 1019.1
20260904114210 89 161 2.0 3.0 0.00 0.00 0.00 46 1019.2
20260904113607 89 145 2.0 4.0 0.00 0.00 0.00 45 1019.4
20260904113008 88 232 2.0 3.0 0.00 0.00 0.00 46 1019.5
20260904112410 88 262 1.0 2.0 0.00 0.00 0.00 49 1019.4
20260904111810 87 122 2.0 4.0 0.00 0.00 0.00 48 1019.6
20260904111210 89 231 0.0 2.0 0.00 0.00 0.00 46 1019.6
20260904110609 88 208 2.0 3.0 0.00 0.00 0.00 46 1019.5
20260904105407 88 193 3.0 5.0 0.00 0.00 0.00 45 1019.7
20260904104807 87 178 1.0 2.0 0.00 0.00 0.00 46 1019.6
20260904104207 87 115 0.0 2.0 0.00 0.00 0.00 46 1019.7
20260904103607 86 67 2.0 2.0 0.00 0.00 0.00 46 1019.8
20260904103007 86 202 2.0 3.0 0.00 0.00 0.00 45 1019.8
20260904102409 86 82 1.0 1.0 0.00 0.00 0.00 48 1019.9
20260904101810 87 116 1.0 2.0 0.00 0.00 0.00 48 1019.9
20260904101208 87 127 2.0 4.0 0.00 0.00 0.00 46 1019.9
20260904100607 87 149 2.0 5.0 0.00 0.00 0.00 48 1019.9
20260904095407 86 51 1.0 2.0 0.00 0.00 0.00 49 1020.0
20260904094807 86 236 1.0 3.0 0.00 0.00 0.00 48 1019.9
20260904094207 86 187 0.0 2.0 0.00 0.00 0.00 48 1019.9
20260904093609 86 141 2.0 4.0 0.00 0.00 0.00 48 1019.9
20260904093010 86 57 2.0 2.0 0.00 0.00 0.00 48 1020.0
20260904092410 85 297 2.0 3.0 0.00 0.00 0.00 49 1020.1
20260904091808 84 203 1.0 2.0 0.00 0.00 0.00 49 1020.1
20260904091209 85 105 0.0 0.0 0.00 0.00 0.00 49 1020.1
20260904090610 85 55 1.0 2.0 0.00 0.00 0.00 48 1020.1
20260904085407 84 93 1.0 2.0 0.00 0.00 0.00 51 1020.2
20260904084807 84 65 0.0 0.0 0.00 0.00 0.00 50 1020.1
20260904084207 84 59 2.0 3.0 0.00 0.00 0.00 54 1020.2
20260904083607 84 31 2.0 3.0 0.00 0.00 0.00 52 1020.2
20260904083008 83 82 1.0 2.0 0.00 0.00 0.00 52 1020.2
20260904082410 83 67 0.0 2.0 0.00 0.00 0.00 52 1020.1
20260904081807 83 66 2.0 3.0 0.00 0.00 0.00 53 1020.2
20260904081209 82 75 2.0 2.0 0.00 0.00 0.00 57 1020.2
20260904080608 82 77 0.0 0.0 0.00 0.00 0.00 54 1020.2
20260904075407 81 67 2.0 4.0 0.00 0.00 0.00 58 1020.2
20260904074810 81 71 2.0 3.0 0.00 0.00 0.00 57 1020.3
20260904074207 80 69 2.0 3.0 0.00 0.00 0.00 58 1020.2
20260904073607 79 58 2.0 3.0 0.00 0.00 0.00 60 1020.2
20260904073010 79 53 2.0 3.0 0.00 0.00 0.00 59 1020.1
20260904072407 80 78 2.0 3.0 0.00 0.00 0.00 59 1020.1
20260904071807 78 62 1.0 2.0 0.00 0.00 0.00 60 1020.1
20260904071207 78 68 3.0 5.0 0.00 0.00 0.00 64 1020.1
20260904070607 78 75 3.0 5.0 0.00 0.00 0.00 63 1020.1
20260904065407 77 59 2.0 4.0 0.00 0.00 0.00 64 1020.1
20260904064808 78 62 3.0 3.0 0.00 0.00 0.00 64 1020.1
20260904064209 78 60 0.0 2.0 0.00 0.00 0.00 65 1020.1
20260904063610 78 73 1.0 3.0 0.00 0.00 0.00 67 1020.0
20260904063007 77 65 1.0 2.0 0.00 0.00 0.00 67 1020.0
20260904062407 77 75 1.0 2.0 0.00 0.00 0.00 67 1019.9
20260904061807 77 79 0.0 0.0 0.00 0.00 0.00 69 1019.8
20260904061209 76 79 0.0 1.0 0.00 0.00 0.00 70 1019.9
20260904060606 76 74 1.0 2.0 0.00 0.00 0.00 71 1019.9
20260904055410 76 73 0.0 0.0 0.00 0.00 0.00 70 1019.8
20260904054806 75 73 1.0 3.0 0.00 0.00 0.00 71 1019.7
20260904054207 74 72 1.0 2.0 0.00 0.00 0.00 73 1019.7
20260904053606 73 69 1.0 2.0 0.00 0.00 0.00 75 1019.8
20260904053009 73 40 0.0 2.0 0.00 0.00 0.00 77 1019.8
20260904052407 72 32 0.0 0.0 0.00 0.00 0.00 80 1019.8
20260904051807 72 32 0.0 0.0 0.00 0.00 0.00 82 1019.8
20260904051209 71 32 0.0 0.0 0.00 0.00 0.00 83 1019.7
20260904050607 70 32 0.0 0.0 0.00 0.00 0.00 85 1019.6
20260904045407 70 41 1.0 2.0 0.00 0.00 0.00 86 1019.5
20260904044808 70 54 2.0 2.0 0.00 0.00 0.00 86 1019.5
20260904044206 70 54 0.0 2.0 0.00 0.00 0.00 86 1019.5
20260904043607 70 54 0.0 1.0 0.00 0.00 0.00 86 1019.5
20260904043007 70 54 0.0 0.0 0.00 0.00 0.00 86 1019.4
20260904042410 70 43 0.0 0.0 0.00 0.00 0.00 85 1019.3
20260904041808 70 43 0.0 2.0 0.00 0.00 0.00 85 1019.2
20260904041207 70 43 0.0 0.0 0.00 0.00 0.00 85 1019.3
20260904040607 70 43 1.0 2.0 0.00 0.00 0.00 85 1019.3
20260904035407 70 60 0.0 2.0 0.00 0.00 0.00 85 1019.3
20260904034208 70 306 0.0 0.0 0.00 0.00 0.00 85 1019.3
20260904033606 70 306 0.0 2.0 0.00 0.00 0.00 86 1019.4
20260904033009 71 306 0.0 2.0 0.00 0.00 0.00 85 1019.4
20260904032408 71 61 0.0 0.0 0.00 0.00 0.00 85 1019.4
20260904031209 71 74 1.0 2.0 0.00 0.00 0.00 83 1019.4
20260904030607 71 75 0.0 2.0 0.00 0.00 0.00 83 1019.3
20260904025410 71 74 1.0 2.0 0.00 0.00 0.00 82 1019.3
20260904024430 71 69 2.0 3.0 0.00 0.00 0.00 83 1019.3
20260904024208 71 69 2.0 3.0 0.00 0.00 0.00 83 1019.3
20260904023608 71 70 0.0 2.0 0.00 0.00 0.00 83 1019.4
20260904023007 71 70 3.0 4.0 0.00 0.00 0.00 82 1019.4
20260904022407 71 74 2.0 3.0 0.00 0.00 0.00 82 1019.4
20260904021206 71 49 2.0 3.0 0.00 0.00 0.00 82 1019.4
20260904020607 71 51 1.0 2.0 0.00 0.00 0.00 82 1019.3
20260904015407 72 52 0.0 0.0 0.00 0.00 0.00 81 1019.2
20260904014207 72 52 0.0 0.0 0.00 0.00 0.00 81 1019.3
20260904013607 72 52 0.0 0.0 0.00 0.00 0.00 80 1019.2
20260904013007 72 52 0.0 1.0 0.00 0.00 0.00 81 1019.2
20260904012407 72 52 0.0 0.0 0.00 0.00 0.00 82 1019.2
20260904011210 72 52 0.0 0.0 0.00 0.00 0.00 82 1019.4
20260904010610 71 52 0.0 0.0 0.00 0.00 0.00 83 1019.4
20260904005410 72 52 0.0 0.0 0.00 0.00 0.00 83 1019.3
20260904004809 72 52 0.0 0.0 0.00 0.00 0.00 83 1019.3
20260904004207 72 52 0.0 0.0 0.00 0.00 0.00 82 1019.3
20260904003607 72 52 0.0 0.0 0.00 0.00 0.00 81 1019.3
20260904003008 72 52 0.0 0.0 0.00 0.00 0.00 81 1019.3
20260904002407 72 52 1.0 2.0 0.00 0.00 0.00 81 1019.4
20260904001206 73 54 0.0 0.0 0.00 0.00 0.00 82 1019.3
20260904000609 73 54 0.0 0.0 0.00 0.00 0.00 81 1019.2
20260903235410 74 54 0.0 0.0 0.00 0.00 0.00 78 1019.2
20260903234207 74 53 0.0 0.0 0.00 0.00 0.00 75 1019.3
20260903233711 74 53 0.0 0.0 0.00 0.00 0.00 75 1019.3
20260903233607 74 53 0.0 0.0 0.00 0.00 0.00 75 1019.3
20260903233007 74 53 0.0 1.0 0.00 0.00 0.00 76 1019.2
20260903232407 74 53 0.0 2.0 0.00 0.00 0.00 76 1019.1
20260903231208 74 298 0.0 0.0 0.00 0.00 0.00 77 1019.3
20260903230608 74 298 0.0 0.0 0.00 0.00 0.00 77 1019.3
20260903225407 73 300 0.0 0.0 0.00 0.00 0.00 77 1019.4
20260903224808 73 300 0.0 0.0 0.00 0.00 0.00 75 1019.4
20260903224209 74 300 0.0 0.0 0.00 0.00 0.00 77 1019.4